2019-071K (45120 NORAD) Tracking and Keplerian Element Data

This shows tracking and keplerian element data for the satellite.

Feedback or suggestion? Click here.




ElementValue
Catalog45120
Name2019-071K
Epoch Orbit312
Epoch Day52.86551863
Epoch Year2020
RAAN206.5033
Inclination51.6414
Eccentricity0.001183
Argument of Perigee356.7886
Mean Anonmoly3.3018
Mean Motion15.33248079
Decay Rate2.43E-05
L11 45120U 19071K 20052.86551863 .00002430 00000-0 85948-4 0 9998
L22 45120 51.6414 206.5033 0011830 356.7886 3.3018 15.33248079 3123

Live tracking and technical data element details for 2019-071K (NORAD 45120). 2019-071K can be tracked NOW for your location showing map with azimuth and elevation plus other details from your city location.

Track the satellite on the map from your city or location and see movement details for azimuth, elevation, latitude, longitude, range, height, and movement on the map or in text.







IsCatalogInMostPopularTable: catalog: 45120, numindb: 5
Update: records affected: 1



GetName: 45120 2019-071K

Hit Count: updated at: Mon, 24 Feb 2020 18:41:40 GMT